TimeEDT,TemperatureF,Dew PointF,Humidity,Sea Level PressureIn,VisibilityMPH,Wind Direction,Wind SpeedMPH,Gust SpeedMPH,PrecipitationIn,Events,Conditions,WindDirDegrees,DateUTC
12:53 AM,70.0,59.0,68,29.95,10.0,SW,10.4,-,N/A,,Scattered Clouds,230,2013-05-06 04:53:00
1:53 AM,71.1,60.1,68,29.93,10.0,WSW,12.7,-,N/A,,Mostly Cloudy,240,2013-05-06 05:53:00
2:53 AM,71.1,62.1,73,29.92,10.0,West,11.5,-,N/A,,Scattered Clouds,280,2013-05-06 06:53:00
3:53 AM,71.1,62.1,73,29.92,10.0,West,10.4,16.1,N/A,,Scattered Clouds,280,2013-05-06 07:53:00
4:53 AM,69.1,60.1,73,29.93,10.0,WNW,8.1,-,N/A,,Scattered Clouds,300,2013-05-06 08:53:00
5:53 AM,66.9,57.9,73,29.94,10.0,NW,8.1,-,N/A,,Scattered Clouds,310,2013-05-06 09:53:00
6:53 AM,66.9,55.9,68,29.97,10.0,NW,6.9,-,N/A,,Scattered Clouds,310,2013-05-06 10:53:00
7:53 AM,69.1,55.9,63,29.99,10.0,WNW,6.9,-,N/A,,Partly Cloudy,300,2013-05-06 11:53:00
8:53 AM,70.0,55.9,61,30.00,10.0,NNW,5.8,-,N/A,,Partly Cloudy,340,2013-05-06 12:53:00
9:53 AM,70.0,54.0,57,30.02,10.0,Variable,5.8,-,N/A,,Scattered Clouds,0,2013-05-06 13:53:00
10:53 AM,71.1,53.1,53,30.03,10.0,WSW,9.2,-,N/A,,Scattered Clouds,250,2013-05-06 14:53:00
11:53 AM,72.0,54.0,53,30.03,10.0,WNW,9.2,-,N/A,,Scattered Clouds,300,2013-05-06 15:53:00
12:53 PM,72.0,54.0,53,30.02,10.0,WNW,10.4,-,N/A,,Partly Cloudy,300,2013-05-06 16:53:00
1:53 PM,73.0,53.1,49,30.02,10.0,West,12.7,-,N/A,,Partly Cloudy,260,2013-05-06 17:53:00
2:53 PM,73.0,53.1,49,30.01,10.0,WSW,11.5,16.1,N/A,,Partly Cloudy,250,2013-05-06 18:53:00
3:53 PM,72.0,53.1,51,29.99,10.0,West,11.5,-,N/A,,Partly Cloudy,260,2013-05-06 19:53:00
4:53 PM,72.0,52.0,49,29.98,10.0,WNW,10.4,-,N/A,,Partly Cloudy,290,2013-05-06 20:53:00
5:53 PM,72.0,53.1,51,29.97,10.0,NW,10.4,-,N/A,,Partly Cloudy,310,2013-05-06 21:53:00
6:53 PM,69.1,53.1,57,29.98,10.0,NW,11.5,-,N/A,,Partly Cloudy,310,2013-05-06 22:53:00
7:53 PM,66.9,53.1,61,29.99,10.0,NW,6.9,-,N/A,,Partly Cloudy,310,2013-05-06 23:53:00
8:53 PM,64.9,53.1,65,30.01,10.0,NW,5.8,-,N/A,,Partly Cloudy,320,2013-05-07 00:53:00
9:53 PM,64.9,54.0,68,30.02,10.0,NW,6.9,-,N/A,,Partly Cloudy,310,2013-05-07 01:53:00
10:53 PM,64.0,54.0,70,30.03,10.0,Calm,Calm,-,N/A,,Partly Cloudy,0,2013-05-07 02:53:00
11:53 PM,63.0,55.0,75,30.03,10.0,North,3.5,-,N/A,,Partly Cloudy,350,2013-05-07 03:53:00